This demonstration page uses our WeatherBlox Daily Observations layout. Learn more.

Left ArrowRight Arrow

47.50024, -111.30081

Hourly Observations for January 10, 2022

Temp ( °F °C ) Dew Point ( °F °C ) Humidity (%) Winds ( mph kmh ) Pressure ( in mb ) Visibility ( mi km ) Precip ( " mm )
12:53 am 00:53 Clear 35 1.7 16 -8.9 46 46 SSW 23 37 30.43 1031 10 16 0.00 0.00
1:53 am 01:53 Clear 34 1.1 17 -8.3 50 50 SSW 23 37 30.41 1030 10 16 0.00 0.00
2:53 am 02:53 Clear 33 0.6 16 -8.9 49 49 SSW 21 33 30.41 1030 10 16 0.00 0.00
3:53 am 03:53 Clear 33 0.6 16 -8.9 49 49 SW 26 43 30.37 1028 10 16 0.00 0.00
4:53 am 04:53 Clear 32 0 16 -8.9 52 52 SW 23 37 30.37 1029 10 16 0.00 0.00
5:53 am 05:53 Clear 32 0 15 -9.4 50 50 SSW 26 43 30.34 1028 10 16 0.00 0.00
6:53 am 06:53 Clear 32 0 16 -8.9 52 52 SSW 18 30 30.35 1028 10 16 0.00 0.00
7:53 am 07:53 Clear 32 0 16 -8.9 52 52 SW 22 35 30.35 1028 10 16 0.00 0.00
8:53 am 08:53 Sunny 35 1.7 16 -8.9 46 46 SW 23 37 30.35 1028 10 16 0.00 0.00
9:53 am 09:53 Sunny 37 2.8 17 -8.3 44 44 SSW 26 43 30.36 1028 10 16 0.00 0.00
10:53 am 10:53 Sunny 40 4.4 19 -7.2 43 43 SSW 24 39 30.34 1028 10 16 0.00 0.00
11:53 am 11:53 Sunny 41 5 18 -7.8 39 39 SW 20 31 30.32 1027 10 16 0.00 0.00
12:53 pm 12:53 Sunny 41 5 17 -8.3 38 38 SW 24 39 30.27 1025 10 16 0.00 0.00
1:53 pm 13:53 Sunny 40 4.4 16 -8.9 38 38 SW 15 24 30.29 1026 10 16 0.00 0.00
2:53 pm 14:53 Sunny 41 5 17 -8.3 38 38 SW 24 39 30.24 1024 10 16 0.00 0.00
3:53 pm 15:53 Sunny 41 5 16 -8.9 36 36 SW 25 41 30.23 1024 10 16 0.00 0.00
3:56 pm 15:56 Sunny 41 5 17 -8.3 38 38 SW 26 43 30.18 1022 10 16 0.00 0.00
4:53 pm 16:53 Sunny 40 4.4 16 -8.9 38 38 SW 24 39 30.23 1024 10 16 0.00 0.00
5:53 pm 17:53 Clear 39 3.9 16 -8.9 39 39 SW 23 37 30.25 1024 10 16 0.00 0.00
6:53 pm 18:53 Clear 39 3.9 16 -8.9 39 39 SSW 18 30 30.25 1024 10 16 0.00 0.00
7:53 pm 19:53 Clear 38 3.3 18 -7.8 44 44 SSW 20 31 30.25 1024 10 16 0.00 0.00
8:53 pm 20:53 Clear 39 3.9 18 -7.8 43 43 SW 26 43 30.24 1024 10 16 0.00 0.00
9:53 pm 21:53 Clear 37 2.8 19 -7.2 48 48 WSW 28 44 30.27 1025 10 16 0.00 0.00
10:53 pm 22:53 Clear 36 2.2 18 -7.8 48 48 SW 25 41 30.28 1025 10 16 0.00 0.00
11:53 pm 23:53 Clear 35 1.7 19 -7.2 52 52 SW 20 31 30.30 1026 10 16 0.00 0.00

Powered by AerisWeather